Location: Newark
(54.2500°N, 9.1833°E)
Time: 23:05:47
(UTC+00:00)

Vanguard 2 Rocket - Pass Details

Date: 16 December 2019
Orbit: 554 x 3326 km, 32.9° (Epoch: 21 January)

Event Time Altitude Azimuth Distance (km) Brightness Sun altitude
Rises 16:25:56 0° 235° (SW) 7,123 13.3 -11.4°
Reaches altitude 10° 16:32:07 10° 225° (SW) 5,817 12.2 -12.3°
Maximum altitude 16:44:34 26° 178° (S) 3,707 10.2 -14.0°
Drops below altitude 10° 16:53:18 10° 127° (SE) 3,999 9.9 -15.2°
Enters shadow 16:55:43 - 118° (ESE) 4,426 10.0 -15.5°
